Theta_e
329 332 330 332 328 328 325 326 324 326 327 324 320 320 320 322 324 326 325 324 324 325 321 322 322 320 318 320 317 315 314 314 317 312 312 313 315 315 316 316 316 316 317
322 325 331 331 328 327 326 327 325 324 326 324 323 325 323 322 324 324 325 325 325 324 324 321 320 318 318 318 317 316 314 313 315 312 308 305 309 312 314 316 317 315 316
321 325 330 329 329 328 328 329 327 325 325 324 325 322 323 323 323 323 325 325 327 326 323 322 320 318 319 317 318 316 313 312 316 314 312 306 302 307 312 313 315 316 317
325 328 331 328 328 330 331 330 327 325 327 327 325 323 322 319 322 323 325 324 325 324 325 323 322 320 317 317 318 319 317 314 312 315 317 315 312 307 306 310 313 315 316
326 329 331 329 331 331 330 331 330 329 327 327 328 328 322 325 326 325 323 321 325 325 325 323 321 320 320 319 320 319 318 317 315 314 314 314 314 312 308 308 309 313 314
327 331 333 331 330 332 331 331 331 332 332 331 331 328 325 323 323 323 322 323 324 323 325 323 321 321 322 321 321 321 320 319 318 318 317 315 313 313 310 309 312 311 314
324 328 331 331 330 331 331 330 333 333 334 331 331 330 327 326 325 324 324 321 320 323 323 322 321 321 323 324 323 321 321 320 319 318 318 317 317 315 313 311 311 309 311
321 325 330 331 331 332 331 330 333 333 334 332 332 333 330 329 327 327 325 322 320 323 323 323 323 324 325 325 324 322 322 321 321 319 318 317 318 317 315 311 309 308 305
322 324 328 330 331 331 330 331 333 334 335 334 333 334 331 328 327 328 326 325 327 325 326 325 325 325 325 326 324 326 322 321 320 320 319 316 317 317 316 316 312 310 307
321 326 328 331 332 332 332 333 333 334 333 333 329 334 332 330 330 327 326 327 328 329 325 326 326 327 330 326 326 325 321 320 320 320 317 316 316 315 313 312 310 308 305
322 324 327 329 333 334 333 333 332 332 332 323 323 329 332 334 330 328 328 329 328 328 327 328 329 328 326 325 321 316 316 316 315 314 314 313 311 311 310 309 307 306 304
319 323 326 327 328 328 332 331 330 331 332 331 325 333 334 331 330 329 329 327 327 328 328 329 327 320 316 312 311 310 310 311 313 312 311 310 315 309 309 307 305 304 303
320 320 322 327 328 327 330 333 333 331 332 331 333 331 323 321 327 326 326 326 326 329 330 326 317 312 310 308 306 307 307 308 310 312 311 311 310 306 305 304 302 302 304
320 320 319 324 325 329 330 331 332 332 332 333 329 329 328 329 326 324 325 326 330 327 323 319 314 309 307 306 304 305 303 305 311 315 312 312 309 306 304 303 301 302 300
319 320 322 323 324 326 329 331 332 331 330 332 330 329 329 324 323 328 330 329 328 322 321 319 313 307 305 305 301 301 302 302 308 313 312 312 312 314 309 304 301 300 299
323 323 323 324 325 329 329 332 331 330 329 326 323 328 324 324 326 325 325 324 320 318 318 316 315 307 307 304 305 305 302 305 309 309 310 311 317 313 312 311 311 309 302
323 324 324 326 329 328 330 331 331 329 327 325 326 328 323 322 326 327 322 320 318 317 316 314 315 309 303 303 303 306 305 305 305 308 307 308 312 306 303 305 307 308 310
325 325 324 326 326 328 330 330 330 328 327 326 327 324 322 322 324 320 318 318 316 316 314 314 313 310 307 303 302 304 305 304 304 307 306 306 304 301 301 300 301 302 303
326 327 328 332 332 330 329 329 324 323 328 328 326 322 319 316 317 317 315 316 316 315 314 315 313 311 309 303 302 302 303 303 303 305 305 307 303 302 302 299 299 300 301
327 328 331 329 331 327 327 323 324 324 324 325 326 320 317 316 315 315 316 314 314 315 316 313 313 313 310 302 301 301 302 299 300 301 303 305 303 301 299 297 297 296 299
326 327 330 326 327 323 320 319 325 323 323 325 320 318 315 314 316 315 315 314 313 313 313 314 313 312 312 303 301 301 301 300 299 299 301 303 301 298 298 298 296 297 301
328 332 330 328 328 326 327 322 321 323 323 318 317 316 315 315 317 315 314 314 313 312 310 310 312 311 306 302 300 300 301 300 297 298 299 300 298 297 297 298 299 297 298
328 332 330 329 324 328 324 318 319 319 316 316 314 314 313 314 313 312 312 312 313 312 311 308 307 306 307 302 301 300 299 300 298 298 299 298 297 298 300 301 299 299 298
327 328 322 327 322 322 322 319 319 317 315 310 310 311 310 309 312 313 312 312 311 308 310 305 304 303 304 303 302 300 298 300 300 301 297 299 298 299 301 299 298 297 297
328 328 326 324 323 324 320 317 316 314 311 310 311 310 311 310 310 310 311 311 311 309 306 304 303 302 302 304 301 299 298 297 297 295 296 298 299 298 297 297 296 295 294
328 326 325 323 322 320 319 316 315 315 311 311 310 310 310 311 312 310 311 306 304 303 299 300 303 305 303 300 296 296 295 294 293 295 296 297 299 296 296 294 293 293 294
Wind_Speed
5 12 13 15 15 12 12 10 10 7 6 3 2 2 3 3 3 4 6 6 3 5 3 2 3 3 4 2 1 2 4 4 4 3 5 4 2 2 4 4 4 6 6
9 8 11 12 14 14 12 10 9 8 5 3 3 3 2 2 2 1 3 5 5 1 3 3 3 1 2 3 3 2 3 3 3 2 1 4 5 3 3 3 4 6 4
9 9 8 11 11 13 12 10 8 8 5 5 2 1 3 3 3 2 1 3 5 4 3 4 3 1 1 1 1 2 2 2 4 1 2 4 2 4 3 5 3 6 4
9 8 6 12 12 10 7 8 7 7 4 4 1 2 2 1 3 2 2 3 6 5 3 3 4 4 2 2 2 2 1 1 4 5 2 2 4 2 6 3 4 6 6
9 10 13 10 9 10 8 7 8 8 6 4 3 2 1 2 1 2 3 2 4 6 5 3 5 4 2 2 3 4 3 3 3 3 2 2 3 2 3 7 5 4 5
9 9 13 14 11 9 8 7 7 6 6 7 7 3 1 1 1 2 2 3 4 3 3 3 4 3 3 4 4 5 5 5 4 3 4 3 3 5 3 4 7 8 5
9 8 9 11 9 10 8 7 8 7 8 8 6 6 5 3 3 3 2 2 2 2 5 4 3 3 4 6 5 5 5 4 4 5 4 4 4 3 3 2 5 4 3
9 9 10 9 9 10 9 8 9 7 6 6 7 7 7 4 3 3 3 0 1 3 3 4 5 6 7 6 4 3 4 4 5 7 5 4 4 3 3 3 2 5 3
10 10 9 8 9 9 10 9 12 9 8 4 7 8 6 5 4 4 3 3 1 2 5 5 5 7 6 5 5 3 5 4 5 6 6 3 3 4 3 3 1 3 6
9 9 8 9 8 11 8 8 12 11 10 11 7 4 6 7 6 6 6 5 5 3 4 5 7 6 5 5 3 2 4 5 5 4 4 4 3 3 3 2 2 2 2
9 8 7 7 10 11 9 9 8 7 13 12 7 3 5 7 6 6 7 6 5 6 5 7 3 3 5 6 6 5 5 6 5 4 4 4 3 3 4 4 3 3 2
9 9 9 8 6 7 9 8 4 8 10 9 3 10 16 6 5 6 5 3 2 4 6 2 6 6 7 7 7 6 6 6 7 5 4 5 4 5 5 3 4 3 3
6 4 5 8 7 5 7 8 7 7 9 5 9 11 10 7 8 6 5 4 4 2 1 4 8 6 6 6 6 6 6 6 6 6 4 4 5 3 1 1 3 3 4
6 5 3 7 8 8 6 6 7 7 8 8 7 9 10 10 8 7 7 5 4 3 6 7 7 6 6 5 6 6 7 7 6 6 4 3 4 4 1 2 3 4 5
5 5 6 7 8 7 7 7 7 4 4 6 6 8 8 8 8 6 6 6 5 5 7 7 7 6 6 4 5 6 6 6 7 7 5 5 6 7 4 2 4 5 4
6 7 4 7 8 8 7 6 5 7 4 3 4 8 7 6 6 6 6 7 7 5 6 4 6 7 4 5 2 3 5 6 6 6 6 5 9 5 2 8 9 9 4
6 7 7 7 6 6 5 5 4 5 5 1 4 4 5 4 6 7 7 6 6 5 4 2 5 6 5 4 3 6 4 6 6 6 6 7 3 4 4 7 10 10 11
7 7 7 2 2 5 1 5 6 2 5 3 5 6 6 6 6 6 7 6 4 5 3 1 4 7 6 9 6 5 4 6 7 6 7 6 3 2 1 5 6 7 7
7 4 5 19 19 13 12 14 14 22 16 11 9 5 5 6 5 5 5 4 4 2 3 3 5 5 7 11 7 1 4 5 6 7 7 1 2 5 6 5 5 7 9
7 7 10 12 7 4 6 6 8 6 12 12 6 1 5 7 6 5 3 2 2 2 2 3 5 7 5 9 8 2 2 4 4 5 7 8 7 8 9 6 4 6 11
8 5 7 5 7 5 4 6 8 5 4 7 10 4 4 5 2 3 1 1 0 2 3 5 7 6 5 7 9 6 2 3 4 4 5 5 10 10 15 13 5 7 8
8 9 9 8 5 6 8 7 6 3 4 6 3 2 5 2 3 4 1 0 2 3 5 5 7 1 4 8 8 7 8 4 3 5 5 6 11 17 17 13 9 11 8
9 11 9 8 7 9 7 6 3 6 3 3 2 1 2 0 2 4 3 2 4 4 6 3 3 1 3 4 10 10 8 6 3 4 5 11 15 14 10 9 8 7 4
5 4 6 8 4 4 3 6 4 2 4 2 3 4 1 2 2 2 2 2 4 3 4 3 4 4 4 5 5 4 3 5 4 6 6 10 11 10 3 2 4 3 4
4 4 6 6 7 6 5 3 1 2 3 3 4 2 3 4 4 4 5 4 5 6 5 5 5 5 5 6 8 7 3 4 4 4 3 4 3 2 1 2 3 3 4
4 5 4 5 4 3 3 3 1 3 3 3 3 3 3 4 4 4 5 9 14 13 13 13 9 6 11 10 12 11 9 8 4 3 4 5 4 3 2 1 1 1 4
Wind_Direction
239 179 162 146 138 136 133 128 126 141 130 125 156 255 242 234 253 248 167 159 135 155 116 109 67 40 38 79 8 320 350 334 337 354 328 307 269 70 318 292 266 274 269
58 51 140 142 151 144 140 131 137 149 148 155 200 208 194 226 190 154 142 140 134 153 152 154 136 109 81 347 323 12 331 305 9 0 341 349 337 330 291 315 278 267 275
68 29 124 138 142 148 145 142 147 151 157 193 195 332 7 6 353 334 133 176 160 210 170 173 167 178 97 23 331 94 64 328 316 41 139 350 281 317 317 317 305 295 296
77 47 82 147 151 140 123 125 132 145 183 204 212 189 201 238 250 153 145 188 178 189 185 215 170 170 203 341 291 217 223 82 299 333 13 173 198 284 324 325 313 320 324
100 82 83 107 117 126 136 137 140 153 191 223 198 291 334 307 30 132 179 231 212 201 198 198 154 150 202 266 251 279 263 232 227 231 288 303 306 240 198 301 303 299 285
109 96 124 133 145 145 142 147 158 177 193 187 193 203 301 335 58 327 317 282 255 204 205 184 151 189 222 249 265 262 247 247 243 246 258 233 239 279 259 276 295 283 282
126 134 133 143 153 147 154 159 167 187 195 189 191 193 205 209 239 243 280 316 360 115 185 168 181 224 232 235 241 260 258 266 262 265 257 247 242 228 230 218 281 268 290
126 138 145 150 144 143 161 167 183 194 189 196 215 196 194 195 231 238 214 309 258 176 201 192 211 233 243 249 253 252 266 275 265 272 267 257 258 238 229 213 225 302 282
139 123 111 134 146 153 180 184 191 181 182 201 219 204 182 192 195 185 188 217 255 242 158 210 228 244 255 250 256 249 278 272 274 266 271 260 273 269 282 262 242 256 312
120 127 135 158 164 171 185 195 192 186 116 216 225 279 187 188 224 200 214 229 241 237 249 249 249 259 280 300 277 293 288 299 300 292 318 338 319 360 3 22 357 335 306
131 146 158 172 177 174 176 196 194 162 148 192 213 80 351 252 235 207 224 227 228 231 232 246 288 91 67 40 48 26 19 22 0 5 34 2 344 30 30 24 12 343 328
130 152 170 167 185 174 183 183 182 152 166 198 170 144 222 217 265 226 216 201 240 252 250 111 96 81 71 48 38 24 0 5 346 328 15 344 33 54 41 11 354 299 308
91 158 182 165 177 174 152 168 167 173 195 169 173 165 182 202 226 199 199 210 232 298 125 73 110 103 77 52 31 24 357 344 326 326 1 2 94 73 1 333 330 303 306
163 238 253 168 173 174 169 165 166 169 195 155 161 165 184 208 208 201 202 204 127 80 84 116 114 105 90 66 32 9 347 334 322 316 334 117 153 165 240 306 289 300 298
306 278 252 189 182 169 176 171 159 154 111 158 170 186 199 188 193 192 162 137 121 102 95 123 124 116 90 63 31 1 335 320 311 309 294 181 202 183 188 207 316 310 284
22 35 290 230 184 170 183 179 155 144 78 117 167 189 192 207 181 147 121 108 106 95 86 123 150 125 96 103 23 310 325 314 303 304 305 311 240 180 34 355 323 308 295
1 1 340 317 186 191 142 107 186 130 102 303 269 236 168 101 130 134 119 115 121 113 109 73 93 128 145 173 267 321 337 324 318 309 317 324 33 80 20 336 314 302 300
332 328 351 313 87 48 103 3 95 128 126 249 342 40 78 95 131 130 134 132 125 118 123 261 159 161 194 200 225 317 325 316 314 322 326 318 150 14 336 297 300 291 279
331 318 6 44 31 2 50 59 51 356 347 66 9 315 65 67 100 108 115 112 118 139 174 230 240 212 212 208 195 358 315 312 325 324 327 266 222 293 304 277 288 298 289
339 18 113 108 116 108 97 87 82 16 52 5 231 319 74 70 67 75 85 88 104 201 199 268 250 245 231 179 188 198 281 314 314 302 301 264 246 270 278 273 289 289 289
343 73 90 88 137 146 152 47 102 157 112 151 262 110 91 84 104 127 85 101 1 313 289 268 278 273 252 178 187 215 235 269 296 296 300 286 253 281 306 305 258 249 281
23 66 83 91 136 146 94 109 118 222 218 224 189 73 102 104 137 152 166 259 274 276 281 280 285 341 130 159 203 211 217 257 259 285 282 285 307 310 302 301 292 289 315
46 53 75 72 67 77 91 104 205 195 170 51 331 282 107 81 133 160 212 248 261 255 263 272 300 217 181 204 202 208 232 275 304 276 274 307 307 300 314 356 24 13 344
62 98 76 81 82 76 173 189 195 183 187 187 338 335 282 275 286 238 228 233 258 272 255 232 236 238 201 203 218 223 273 306 311 308 306 291 287 281 272 44 34 358 355
24 70 102 115 151 173 189 162 169 282 312 322 322 325 320 297 282 258 238 238 233 198 218 232 223 228 245 236 204 193 232 241 235 311 276 303 304 298 348 20 18 1 0
30 73 107 128 162 193 160 174 265 283 310 339 332 318 333 319 287 270 280 248 237 246 235 235 212 239 225 198 199 207 226 243 220 240 245 273 260 225 184 179 302 314 310